STARLINK-32697 (62436 NORAD) Tracking and Keplerian Element Data

This shows tracking and keplerian element data for the satellite.

Feedback or suggestion? Click here.




ElementValue
Catalog62436
NameSTARLINK-32697
Epoch Orbit680
Epoch Day35.19157576
Epoch Year2025
RAAN35.0226
Inclination53.1609
Eccentricity0.0001447
Argument of Perigee84.7874
Mean Anonmoly275.3296
Mean Motion15.39613734
Decay Rate2.887E-05
L11 62436U 24251E 25035.19157576 .00002887 00000+0 82145-4 0 9999
L22 62436 53.1609 35.0226 0001447 84.7874 275.3296 15.39613734 6809



Live tracking and technical data element details for STARLINK-32697 (NORAD 62436). STARLINK-32697 can be tracked NOW for your location showing map with azimuth and elevation plus other details from your city location.







IsCatalogInMostPopularTable: catalog: 62436, numindb: 16
Update: records affected: 1



GetName: 62436 STARLINK-32697

Hit Count: updated at: Sun, 18 May 2025 23:45:05 GMT